| time (UTC) | temp C | wind direction | speed KPH | gust KPH | rain 1hr cm | rain 24hr cm | rain mn cm | humidity % | barometer mb |
| 20260505005945 | 20 | 223 | 9.7 | 12.9 | 0.00 | 0.00 | 0.00 | 54 | 1006.8 |
| 20260505005442 | 20 | 208 | 8.0 | 11.3 | 0.00 | 0.00 | 0.00 | 53 | 1006.9 |
| 20260505004940 | 20 | 180 | 8.0 | 11.3 | 0.00 | 0.00 | 0.00 | 53 | 1006.7 |
| 20260505004436 | 20 | 191 | 8.0 | 9.7 | 0.00 | 0.00 | 0.00 | 53 | 1006.6 |
| 20260505003933 | 20 | 215 | 8.0 | 11.3 | 0.00 | 0.00 | 0.00 | 54 | 1006.9 |
| 20260505003431 | 20 | 216 | 8.0 | 12.9 | 0.00 | 0.00 | 0.00 | 54 | 1006.8 |
| 20260505002927 | 20 | 191 | 8.0 | 12.9 | 0.00 | 0.00 | 0.00 | 54 | 1006.9 |
| 20260505002423 | 20 | 205 | 6.4 | 11.3 | 0.00 | 0.00 | 0.00 | 54 | 1006.9 |
| 20260505001922 | 21 | 212 | 9.7 | 14.5 | 0.00 | 0.00 | 0.00 | 53 | 1007.0 |
| 20260505001419 | 21 | 168 | 8.0 | 14.5 | 0.00 | 0.00 | 0.00 | 53 | 1006.7 |
| 20260505000916 | 21 | 201 | 6.4 | 12.9 | 0.00 | 0.00 | 0.00 | 52 | 1006.9 |
| 20260505000414 | 21 | 224 | 8.0 | 17.7 | 0.00 | 0.00 | 0.00 | 51 | 1006.8 |
| 20260504235910 | 21 | 223 | 6.4 | 14.5 | 0.00 | 0.00 | 0.00 | 52 | 1007.0 |
| 20260504235408 | 21 | 210 | 6.4 | 12.9 | 0.00 | 0.00 | 0.00 | 51 | 1007.1 |
| 20260504234903 | 22 | 215 | 12.9 | 16.1 | 0.00 | 0.00 | 0.00 | 49 | 1007.0 |
| 20260504234401 | 22 | 220 | 9.7 | 12.9 | 0.00 | 0.00 | 0.00 | 49 | 1007.1 |
| 20260504233857 | 22 | 218 | 8.0 | 12.9 | 0.00 | 0.00 | 0.00 | 50 | 1007.1 |
| 20260504233353 | 22 | 200 | 12.9 | 20.9 | 0.00 | 0.00 | 0.00 | 49 | 1006.7 |
| 20260504232850 | 21 | 233 | 9.7 | 12.9 | 0.00 | 0.00 | 0.00 | 51 | 1006.9 |
| 20260504232347 | 21 | 228 | 9.7 | 14.5 | 0.00 | 0.00 | 0.00 | 52 | 1007.0 |
| 20260504231844 | 21 | 214 | 8.0 | 11.3 | 0.00 | 0.00 | 0.00 | 54 | 1007.2 |
| 20260504231341 | 22 | 201 | 8.0 | 14.5 | 0.00 | 0.00 | 0.00 | 54 | 1007.2 |
| 20260504230837 | 22 | 199 | 6.4 | 16.1 | 0.00 | 0.00 | 0.00 | 53 | 1007.3 |
| 20260504230335 | 22 | 215 | 9.7 | 14.5 | 0.00 | 0.00 | 0.00 | 52 | 1007.5 |
| 20260504225833 | 22 | 176 | 12.9 | 16.1 | 0.00 | 0.00 | 0.00 | 51 | 1007.4 |
| 20260504225329 | 22 | 164 | 11.3 | 17.7 | 0.00 | 0.00 | 0.00 | 49 | 1007.2 |
| 20260504224827 | 22 | 160 | 14.5 | 22.5 | 0.00 | 0.00 | 0.00 | 51 | 1007.2 |
| 20260504224323 | 22 | 191 | 12.9 | 17.7 | 0.00 | 0.00 | 0.00 | 51 | 1007.3 |
| 20260504223820 | 22 | 205 | 11.3 | 16.1 | 0.00 | 0.00 | 0.00 | 51 | 1007.2 |
| 20260504223316 | 22 | 225 | 4.8 | 6.4 | 0.00 | 0.00 | 0.00 | 52 | 1007.4 |
| 20260504222813 | 23 | 240 | 6.4 | 11.3 | 0.00 | 0.00 | 0.00 | 50 | 1007.5 |
| 20260504222309 | 23 | 210 | 12.9 | 16.1 | 0.00 | 0.00 | 0.00 | 49 | 1007.6 |
| 20260504221808 | 23 | 245 | 11.3 | 22.5 | 0.00 | 0.00 | 0.00 | 49 | 1007.8 |
| 20260504221304 | 23 | 194 | 11.3 | 16.1 | 0.00 | 0.00 | 0.00 | 50 | 1007.8 |
| 20260504220801 | 23 | 226 | 9.7 | 12.9 | 0.00 | 0.00 | 0.00 | 51 | 1007.9 |
| 20260504220258 | 23 | 209 | 6.4 | 11.3 | 0.00 | 0.00 | 0.00 | 51 | 1007.8 |
| 20260504215755 | 23 | 192 | 11.3 | 14.5 | 0.00 | 0.00 | 0.00 | 50 | 1007.8 |
| 20260504215251 | 23 | 248 | 8.0 | 11.3 | 0.00 | 0.00 | 0.00 | 50 | 1007.8 |
| 20260504214747 | 23 | 199 | 6.4 | 9.7 | 0.00 | 0.00 | 0.00 | 52 | 1007.9 |
| 20260504214244 | 23 | 238 | 8.0 | 11.3 | 0.00 | 0.00 | 0.00 | 52 | 1008.1 |
| 20260504213741 | 23 | 199 | 9.7 | 14.5 | 0.00 | 0.00 | 0.00 | 50 | 1008.3 |
| 20260504213237 | 22 | 227 | 9.7 | 14.5 | 0.00 | 0.00 | 0.00 | 51 | 1008.3 |
| 20260504212734 | 22 | 239 | 9.7 | 11.3 | 0.00 | 0.00 | 0.00 | 50 | 1008.2 |
| 20260504212231 | 22 | 230 | 8.0 | 14.5 | 0.00 | 0.00 | 0.00 | 51 | 1008.2 |
| 20260504211729 | 22 | 222 | 6.4 | 12.9 | 0.00 | 0.00 | 0.00 | 53 | 1008.1 |
| 20260504211224 | 22 | 253 | 12.9 | 16.1 | 0.00 | 0.00 | 0.00 | 50 | 1008.2 |
| 20260504210722 | 22 | 232 | 6.4 | 17.7 | 0.00 | 0.00 | 0.00 | 52 | 1008.3 |
| 20260504210219 | 23 | 248 | 14.5 | 17.7 | 0.00 | 0.00 | 0.00 | 48 | 1008.3 |
| 20260504205716 | 23 | 217 | 9.7 | 12.9 | 0.00 | 0.00 | 0.00 | 49 | 1008.3 |
| 20260504205214 | 24 | 231 | 14.5 | 16.1 | 0.00 | 0.00 | 0.00 | 47 | 1008.3 |
| 20260504204712 | 23 | 229 | 12.9 | 20.9 | 0.00 | 0.00 | 0.00 | 51 | 1008.4 |
| 20260504204210 | 22 | 264 | 9.7 | 14.5 | 0.00 | 0.00 | 0.00 | 53 | 1008.4 |
| 20260504203709 | 23 | 233 | 8.0 | 14.5 | 0.00 | 0.00 | 0.00 | 51 | 1008.5 |
| 20260504203206 | 23 | 228 | 8.0 | 14.5 | 0.00 | 0.00 | 0.00 | 49 | 1008.4 |
| 20260504202706 | 22 | 182 | 9.7 | 17.7 | 0.00 | 0.00 | 0.00 | 52 | 1008.7 |
| 20260504202203 | 23 | 222 | 17.7 | 25.7 | 0.00 | 0.00 | 0.00 | 49 | 1008.7 |
| 20260504201700 | 23 | 213 | 6.4 | 12.9 | 0.00 | 0.00 | 0.00 | 50 | 1008.7 |
| 20260504201158 | 23 | 187 | 12.9 | 17.7 | 0.00 | 0.00 | 0.00 | 50 | 1009.0 |
| 20260504200655 | 23 | 224 | 11.3 | 20.9 | 0.00 | 0.00 | 0.00 | 49 | 1009.1 |
| 20260504200151 | 22 | 281 | 6.4 | 9.7 | 0.00 | 0.00 | 0.00 | 51 | 1009.2 |
| 20260504195647 | 22 | 309 | 3.2 | 9.7 | 0.00 | 0.00 | 0.00 | 55 | 1009.4 |
| 20260504195143 | 22 | 207 | 4.8 | 12.9 | 0.00 | 0.00 | 0.00 | 54 | 1009.5 |
| 20260504194640 | 22 | 208 | 9.7 | 12.9 | 0.00 | 0.00 | 0.00 | 57 | 1009.5 |
| 20260504194137 | 22 | 231 | 9.7 | 12.9 | 0.00 | 0.00 | 0.00 | 59 | 1009.7 |
| 20260504193633 | 21 | 217 | 9.7 | 11.3 | 0.00 | 0.00 | 0.00 | 60 | 1009.7 |
| 20260504193131 | 20 | 223 | 8.0 | 14.5 | 0.00 | 0.00 | 0.00 | 60 | 1009.7 |
| 20260504192629 | 20 | 206 | 9.7 | 11.3 | 0.00 | 0.00 | 0.00 | 60 | 1010.0 |
| 20260504192127 | 20 | 233 | 6.4 | 14.5 | 0.00 | 0.00 | 0.00 | 61 | 1010.1 |
| 20260504191625 | 20 | 223 | 11.3 | 14.5 | 0.00 | 0.00 | 0.00 | 60 | 1010.0 |
| 20260504191121 | 20 | 206 | 9.7 | 14.5 | 0.00 | 0.00 | 0.00 | 61 | 1009.8 |
| 20260504190617 | 20 | 243 | 9.7 | 16.1 | 0.00 | 0.00 | 0.00 | 60 | 1009.7 |
| 20260504190114 | 20 | 222 | 9.7 | 17.7 | 0.00 | 0.00 | 0.00 | 59 | 1009.9 |
| 20260504185610 | 20 | 216 | 17.7 | 22.5 | 0.00 | 0.00 | 0.00 | 58 | 1009.5 |
| 20260504185107 | 20 | 227 | 14.5 | 29.0 | 0.00 | 0.00 | 0.00 | 58 | 1009.5 |
| 20260504184603 | 20 | 206 | 19.3 | 27.4 | 0.00 | 0.00 | 0.00 | 56 | 1009.7 |
| 20260504184058 | 20 | 212 | 12.9 | 24.1 | 0.00 | 0.00 | 0.00 | 58 | 1009.2 |
| 20260504183555 | 20 | 228 | 16.1 | 20.9 | 0.00 | 0.00 | 0.00 | 57 | 1009.5 |
| 20260504183053 | 20 | 244 | 19.3 | 20.9 | 0.00 | 0.00 | 0.00 | 56 | 1009.5 |
| 20260504182550 | 19 | 230 | 14.5 | 20.9 | 0.00 | 0.00 | 0.00 | 58 | 1009.2 |
| 20260504182047 | 20 | 202 | 11.3 | 16.1 | 0.00 | 0.00 | 0.00 | 59 | 1009.5 |
| 20260504181544 | 20 | 200 | 16.1 | 22.5 | 0.00 | 0.00 | 0.00 | 57 | 1009.4 |
| 20260504181043 | 19 | 212 | 16.1 | 22.5 | 0.00 | 0.00 | 0.00 | 58 | 1009.4 |
| 20260504180541 | 19 | 234 | 14.5 | 22.5 | 0.00 | 0.00 | 0.00 | 58 | 1009.5 |
| 20260504180040 | 19 | 202 | 11.3 | 22.5 | 0.00 | 0.00 | 0.00 | 59 | 1009.4 |
| 20260504175537 | 19 | 205 | 22.5 | 27.4 | 0.00 | 0.00 | 0.00 | 58 | 1008.8 |
| 20260504175033 | 19 | 195 | 17.7 | 22.5 | 0.00 | 0.00 | 0.00 | 59 | 1008.7 |
| 20260504174531 | 20 | 215 | 11.3 | 14.5 | 0.00 | 0.00 | 0.00 | 60 | 1009.1 |
| 20260504174028 | 19 | 175 | 8.0 | 14.5 | 0.00 | 0.00 | 0.00 | 59 | 1009.1 |
| 20260504173525 | 19 | 196 | 8.0 | 14.5 | 0.00 | 0.00 | 0.00 | 62 | 1009.0 |
| 20260504173022 | 19 | 197 | 14.5 | 27.4 | 0.00 | 0.00 | 0.00 | 57 | 1009.2 |
| 20260504172518 | 18 | 184 | 11.3 | 22.5 | 0.00 | 0.00 | 0.00 | 61 | 1009.1 |
| 20260504172015 | 18 | 171 | 9.7 | 16.1 | 0.00 | 0.00 | 0.00 | 60 | 1009.1 |
| 20260504171512 | 18 | 186 | 14.5 | 20.9 | 0.00 | 0.00 | 0.00 | 57 | 1009.5 |
| 20260504171009 | 18 | 184 | 16.1 | 22.5 | 0.00 | 0.00 | 0.00 | 56 | 1009.7 |
| 20260504170504 | 18 | 193 | 8.0 | 22.5 | 0.00 | 0.00 | 0.00 | 58 | 1009.8 |
| 20260504160425 | 17 | 208 | 8.0 | 12.9 | 0.00 | 0.00 | 0.00 | 62 | 1010.1 |
| 20260504150848 | 16 | 213 | 9.7 | 16.1 | 0.00 | 0.00 | 0.00 | 64 | 1010.2 |
| 20260504150345 | 17 | 219 | 11.3 | 24.1 | 0.00 | 0.00 | 0.00 | 62 | 1010.4 |
| 20260504141315 | 15 | 170 | 12.9 | 20.9 | 0.00 | 0.00 | 0.00 | 67 | 1010.8 |
| 20260504140812 | 15 | 195 | 9.7 | 20.9 | 0.00 | 0.00 | 0.00 | 66 | 1010.7 |
| 20260504140307 | 14 | 218 | 17.7 | 20.9 | 0.00 | 0.00 | 0.00 | 69 | 1010.9 |
| 20260504130736 | 12 | 215 | 12.9 | 17.7 | 0.00 | 0.00 | 0.00 | 71 | 1011.2 |
| 20260504130232 | 12 | 215 | 12.9 | 20.9 | 0.00 | 0.00 | 0.00 | 70 | 1011.2 |
| 20260504120156 | 11 | 204 | 9.7 | 14.5 | 0.00 | 0.00 | 0.00 | 66 | 1010.9 |
| 20260504110623 | 10 | 169 | 8.0 | 11.3 | 0.00 | 0.00 | 0.00 | 66 | 1010.9 |
| 20260504110119 | 10 | 190 | 11.3 | 14.5 | 0.00 | 0.00 | 0.00 | 65 | 1010.8 |
| 20260504100545 | 10 | 190 | 6.4 | 12.9 | 0.00 | 0.00 | 0.00 | 65 | 1010.9 |
| 20260504081939 | 10 | 149 | 11.3 | 16.1 | 0.00 | 0.00 | 0.00 | 60 | 1011.8 |
| 20260504081436 | 11 | 193 | 9.7 | 12.9 | 0.00 | 0.00 | 0.00 | 61 | 1011.8 |
| 20260504080931 | 11 | 192 | 9.7 | 14.5 | 0.00 | 0.00 | 0.00 | 60 | 1011.7 |
| 20260504080428 | 11 | 165 | 11.3 | 14.5 | 0.00 | 0.00 | 0.00 | 60 | 1012.0 |
| 20260504070356 | 11 | 167 | 12.9 | 12.9 | 0.00 | 0.00 | 0.00 | 59 | 1012.3 |
| 20260504050743 | 10 | 186 | 6.4 | 6.4 | 0.00 | 0.00 | 0.00 | 63 | 1013.3 |
| 20260504050241 | 10 | 154 | 6.4 | 6.4 | 0.00 | 0.00 | 0.00 | 62 | 1013.3 |
| 20260504045733 | 10 | 176 | 4.8 | 6.4 | 0.00 | 0.00 | 0.00 | 62 | 1013.5 |
| 20260504045233 | 10 | 188 | 1.6 | 6.4 | 0.00 | 0.00 | 0.00 | 62 | 1013.4 |
| 20260504044731 | 10 | 195 | 3.2 | 9.7 | 0.00 | 0.00 | 0.00 | 61 | 1013.6 |
| 20260504044228 | 10 | 204 | 4.8 | 4.8 | 0.00 | 0.00 | 0.00 | 61 | 1013.7 |
| 20260504043725 | 10 | 203 | 4.8 | 4.8 | 0.00 | 0.00 | 0.00 | 61 | 1013.6 |
| 20260504043222 | 10 | 172 | 3.2 | 4.8 | 0.00 | 0.00 | 0.00 | 61 | 1013.8 |
| 20260504042720 | 11 | 214 | 4.8 | 6.4 | 0.00 | 0.00 | 0.00 | 61 | 1013.7 |
| 20260504042216 | 10 | 155 | 6.4 | 6.4 | 0.00 | 0.00 | 0.00 | 60 | 1013.6 |
| 20260504041712 | 11 | 182 | 1.6 | 6.4 | 0.00 | 0.00 | 0.00 | 60 | 1013.8 |
| 20260504041208 | 11 | 155 | 3.2 | 6.4 | 0.00 | 0.00 | 0.00 | 59 | 1013.8 |
| 20260504040704 | 11 | 162 | 4.8 | 9.7 | 0.00 | 0.00 | 0.00 | 60 | 1013.9 |
| 20260504040202 | 11 | 186 | 3.2 | 3.2 | 0.00 | 0.00 | 0.00 | 60 | 1013.9 |
| 20260504035658 | 11 | 182 | 1.6 | 4.8 | 0.00 | 0.00 | 0.00 | 59 | 1014.0 |
| 20260504035155 | 11 | 173 | 3.2 | 4.8 | 0.00 | 0.00 | 0.00 | 59 | 1014.1 |
| 20260504034653 | 11 | 151 | 3.2 | 4.8 | 0.00 | 0.00 | 0.00 | 57 | 1013.9 |
| 20260504034149 | 11 | 164 | 4.8 | 6.4 | 0.00 | 0.00 | 0.00 | 56 | 1014.0 |
| 20260504033648 | 11 | 169 | 3.2 | 11.3 | 0.00 | 0.00 | 0.00 | 56 | 1014.0 |
| 20260504033145 | 11 | 184 | 4.8 | 11.3 | 0.00 | 0.00 | 0.00 | 56 | 1014.1 |
| 20260504032641 | 12 | 185 | 8.0 | 9.7 | 0.00 | 0.00 | 0.00 | 54 | 1014.2 |
| 20260504032138 | 12 | 167 | 4.8 | 9.7 | 0.00 | 0.00 | 0.00 | 54 | 1014.2 |
| 20260504031635 | 12 | 199 | 6.4 | 6.4 | 0.00 | 0.00 | 0.00 | 54 | 1014.3 |
| 20260504031132 | 12 | 184 | 4.8 | 6.4 | 0.00 | 0.00 | 0.00 | 53 | 1014.2 |
| 20260504030628 | 12 | 189 | 4.8 | 6.4 | 0.00 | 0.00 | 0.00 | 52 | 1014.3 |
| 20260504030125 | 12 | 203 | 6.4 | 6.4 | 0.00 | 0.00 | 0.00 | 52 | 1014.2 |
| 20260504025622 | 12 | 178 | 6.4 | 6.4 | 0.00 | 0.00 | 0.00 | 52 | 1014.4 |
| 20260504025119 | 12 | 195 | 6.4 | 11.3 | 0.00 | 0.00 | 0.00 | 51 | 1014.1 |
| 20260504024616 | 12 | 208 | 6.4 | 6.4 | 0.00 | 0.00 | 0.00 | 56 | 1014.4 |
| 20260504024113 | 12 | 207 | 4.8 | 12.9 | 0.00 | 0.00 | 0.00 | 55 | 1014.6 |
| 20260504023609 | 12 | 209 | 6.4 | 9.7 | 0.00 | 0.00 | 0.00 | 55 | 1014.4 |
| 20260504023105 | 12 | 223 | 6.4 | 12.9 | 0.00 | 0.00 | 0.00 | 52 | 1014.1 |
| 20260504022602 | 12 | 192 | 14.5 | 16.1 | 0.00 | 0.00 | 0.00 | 51 | 1014.6 |
| 20260504022058 | 12 | 211 | 9.7 | 17.7 | 0.00 | 0.00 | 0.00 | 48 | 1014.5 |
| 20260504021556 | 12 | 192 | 8.0 | 11.3 | 0.00 | 0.00 | 0.00 | 47 | 1014.3 |
| 20260504021052 | 12 | 178 | 6.4 | 9.7 | 0.00 | 0.00 | 0.00 | 48 | 1013.9 |
| 20260504020549 | 12 | 182 | 1.6 | 4.8 | 0.00 | 0.00 | 0.00 | 51 | 1014.0 |
| 20260504020046 | 12 | 211 | 4.8 | 6.4 | 0.00 | 0.00 | 0.00 | 49 | 1014.3 |
| 20260504015542 | 12 | 195 | 3.2 | 6.4 | 0.00 | 0.00 | 0.00 | 49 | 1013.9 |
| 20260504015038 | 12 | 187 | 3.2 | 4.8 | 0.00 | 0.00 | 0.00 | 50 | 1014.0 |
| 20260504014534 | 12 | 208 | 1.6 | 6.4 | 0.00 | 0.00 | 0.00 | 50 | 1014.1 |
| 20260504014032 | 12 | 223 | 3.2 | 3.2 | 0.00 | 0.00 | 0.00 | 50 | 1014.1 |
| 20260504013529 | 12 | 203 | 1.6 | 3.2 | 0.00 | 0.00 | 0.00 | 50 | 1013.9 |
| 20260504013026 | 13 | 203 | 3.2 | 4.8 | 0.00 | 0.00 | 0.00 | 49 | 1014.2 |
| 20260504012524 | 13 | 209 | 4.8 | 4.8 | 0.00 | 0.00 | 0.00 | 47 | 1014.3 |
| 20260504012022 | 13 | 190 | 4.8 | 4.8 | 0.00 | 0.00 | 0.00 | 47 | 1014.2 |
| 20260504011518 | 13 | 182 | 3.2 | 6.4 | 0.00 | 0.00 | 0.00 | 47 | 1014.2 |
| 20260504011014 | 13 | 195 | 4.8 | 6.4 | 0.00 | 0.00 | 0.00 | 45 | 1014.2 |
| 20260504010510 | 13 | 173 | 6.4 | 6.4 | 0.00 | 0.00 | 0.00 | 45 | 1014.2 |